Vorticity
8 9 4 4 3 6 6 5 8 4 4 4 2 2 1 4 3 4 3 3 2 2 2 2 1 1 1 2 1 2 2 2 3 4 4 3 5 5 4 3 5 6 5
6 6 6 6 6 3 2 5 4 4 3 1 3 6 3 2 3 3 2 4 5 3 2 2 2 2 2 2 2 1 1 2 2 2 3 4 4 4 4 4 4 3 5
2 4 4 6 7 7 6 5 5 4 5 4 0 1 3 4 4 3 2 2 2 3 3 2 1 1 1 2 2 2 2 2 2 1 3 3 3 3 5 5 5 4 3
3 2 3 4 4 5 7 8 7 6 4 5 6 4 4 3 4 3 4 4 3 3 3 3 3 2 2 2 2 2 2 2 2 2 2 2 3 3 2 5 5 4 3
5 2 5 5 3 2 3 4 5 6 6 8 6 4 2 5 7 5 6 5 6 4 3 3 4 4 4 4 3 3 3 2 2 3 2 2 4 3 3 3 4 4 3
2 6 5 3 3 3 4 5 4 4 4 4 5 5 5 8 6 7 7 5 4 6 7 6 5 5 3 2 3 4 3 4 3 2 3 3 2 3 4 5 4 4 4
5 3 3 4 7 6 6 6 5 4 4 3 2 3 4 4 3 3 3 3 4 4 3 4 4 4 4 4 4 3 3 2 3 4 3 3 4 4 7 4 4 4 4
5 8 8 8 5 7 6 6 6 6 5 7 6 6 7 7 7 7 6 5 5 5 4 4 4 4 4 5 4 3 4 3 4 5 4 3 -0 5 0 4 5 4 5
7 6 5 4 3 3 4 5 5 5 5 5 4 4 5 6 6 6 6 7 7 7 7 7 7 7 6 6 6 6 5 4 4 4 5 6 6 2 2 7 5 5 3
5 5 4 5 6 5 3 4 2 4 4 2 1 3 4 4 3 3 3 3 3 3 5 5 4 3 3 4 5 7 6 6 4 3 2 3 5 6 4 2 5 2 4
6 7 7 7 7 6 7 7 7 7 4 5 6 3 4 5 6 6 8 9 8 8 9 10 11 6 6 6 5 4 4 4 5 4 4 3 7 6 5 4 4 4 6
6 5 2 2 3 5 6 6 6 7 8 8 8 9 9 8 8 9 9 8 8 9 10 10 10 11 12 13 14 16 16 10 7 7 7 5 2 0 4 9 6 7 8
5 5 6 6 6 6 6 6 7 7 6 6 6 7 7 6 6 5 5 4 4 5 4 3 3 4 4 3 2 3 5 8 13 14 15 14 7 5 7 3 -0 1 3
9 10 9 8 7 6 6 6 6 5 5 5 5 5 4 4 4 5 4 4 4 5 5 5 5 5 5 5 5 5 5 5 4 3 5 5 9 9 14 8 4 0 1
4 3 3 4 5 5 5 5 5 5 5 6 6 6 6 6 5 5 5 5 5 6 6 6 6 6 6 6 6 7 7 6 6 7 7 7 6 5 5 4 11 15 11
6 7 7 6 6 5 6 6 6 7 7 6 5 5 5 5 6 6 6 6 6 6 7 8 8 8 7 6 6 5 5 5 5 5 5 5 6 6 7 7 5 3 5
5 5 5 6 6 5 6 5 5 5 5 5 5 5 6 6 6 7 8 7 6 5 4 4 3 3 3 3 3 2 3 3 3 2 2 1 3 4 5 5 5 6 7
7 7 6 6 6 6 5 5 6 6 6 6 7 7 7 6 5 4 4 4 3 3 3 3 3 3 3 4 6 5 6 6 6 5 5 5 3 1 -0 1 3 3 3
5 5 5 5 7 7 7 7 7 7 6 6 5 4 3 3 4 4 5 5 5 6 7 7 6 7 7 5 4 4 5 6 6 7 6 5 6 7 8 8 5 5 3
5 6 8 9 7 6 7 6 6 5 5 4 4 5 6 7 7 8 8 7 6 5 5 5 4 3 3 4 5 6 5 6 5 6 4 5 5 6 6 7 7 6 7
7 7 6 5 6 6 5 5 4 4 5 5 6 7 7 7 4 3 3 4 4 4 4 4 5 5 6 6 6 8 6 6 5 4 2 -1 3 3 4 5 6 7 8
7 7 8 8 6 5 4 4 4 4 5 7 7 6 5 3 2 2 2 3 4 4 4 4 5 6 7 7 6 4 5 8 8 8 8 9 9 8 6 4 1 0 -0
6 6 5 5 5 5 5 5 5 5 7 7 5 3 2 2 1 2 3 3 3 5 6 5 5 5 5 5 5 6 5 4 5 6 6 5 5 6 8 9 9 8 6
7 8 8 6 6 6 6 6 6 6 7 7 6 4 3 2 2 2 2 3 4 6 7 5 4 4 5 7 7 7 6 6 4 4 9 7 6 4 3 3 4 6 7
8 9 10 10 9 9 8 8 7 7 5 5 4 4 3 3 3 3 4 3 3 5 6 5 5 4 5 6 5 3 4 5 6 5 -1 5 11 9 9 8 6 5 4
17 22 1 6 6 7 6 7 7 6 5 5 5 5 5 5 5 4 3 1 1 3 4 4 3 4 4 5 7 5 3 3 5 6 6 6 -4 9 14 11 8 9 9
Height
5870 5871 5873 5874 5876 5877 5879 5880 5881 5883 5884 5886 5886 5887 5888 5888 5889 5890 5890 5890 5890 5889 5890 5891 5890 5892 5892 5893 5893 5891 5889 5891 5890 5889 5889 5888 5888 5887 5886 5887 5886 5885 5884
5868 5869 5871 5872 5873 5874 5876 5877 5879 5881 5881 5882 5883 5884 5885 5887 5887 5888 5889 5888 5888 5888 5889 5889 5890 5890 5891 5893 5890 5890 5890 5891 5890 5888 5888 5889 5888 5887 5887 5885 5886 5886 5883
5865 5867 5868 5869 5870 5872 5873 5875 5876 5877 5879 5880 5880 5881 5883 5884 5885 5885 5886 5887 5886 5887 5888 5888 5889 5889 5889 5890 5889 5890 5889 5891 5888 5888 5887 5888 5887 5887 5887 5886 5884 5884 5884
5864 5865 5866 5868 5868 5869 5871 5873 5873 5875 5876 5877 5878 5879 5880 5881 5882 5883 5883 5884 5884 5885 5886 5886 5888 5888 5888 5888 5888 5888 5889 5887 5888 5886 5887 5887 5886 5885 5885 5884 5884 5884 5882
5862 5862 5863 5865 5867 5868 5868 5870 5871 5873 5874 5875 5876 5877 5877 5878 5879 5880 5881 5882 5882 5883 5884 5884 5884 5885 5885 5885 5885 5885 5885 5885 5886 5885 5884 5886 5884 5884 5884 5883 5882 5882 5882
5859 5859 5860 5862 5864 5865 5866 5867 5868 5868 5870 5872 5873 5874 5875 5876 5877 5878 5879 5879 5880 5880 5881 5881 5882 5882 5881 5882 5883 5883 5883 5884 5883 5883 5882 5884 5883 5882 5881 5881 5881 5880 5880
5855 5856 5857 5858 5859 5861 5862 5864 5865 5865 5866 5867 5869 5871 5872 5873 5874 5875 5875 5876 5876 5877 5878 5878 5878 5878 5878 5878 5879 5879 5880 5880 5880 5880 5880 5880 5879 5879 5879 5878 5878 5878 5878
5851 5853 5853 5855 5856 5858 5858 5859 5860 5861 5861 5863 5863 5865 5866 5868 5869 5870 5871 5871 5871 5872 5872 5872 5873 5873 5874 5874 5875 5875 5875 5875 5875 5874 5874 5875 5875 5875 5875 5876 5876 5876 5875
5848 5849 5850 5851 5852 5853 5854 5854 5855 5856 5857 5858 5859 5860 5861 5861 5863 5864 5865 5865 5866 5867 5867 5867 5868 5868 5869 5869 5870 5870 5870 5870 5870 5870 5870 5870 5869 5870 5872 5872 5871 5871 5871
5844 5845 5846 5847 5848 5849 5850 5850 5851 5851 5852 5853 5854 5855 5855 5856 5857 5858 5859 5859 5860 5861 5862 5863 5863 5864 5864 5865 5865 5865 5865 5865 5865 5865 5865 5864 5864 5866 5866 5866 5866 5866 5866
5840 5841 5841 5842 5843 5844 5844 5845 5846 5846 5847 5847 5848 5849 5850 5851 5852 5853 5854 5854 5854 5855 5856 5856 5857 5857 5858 5859 5859 5859 5860 5859 5859 5860 5860 5860 5860 5860 5861 5861 5861 5862 5862
5836 5836 5837 5838 5838 5839 5839 5840 5840 5840 5841 5842 5842 5843 5844 5845 5846 5846 5847 5848 5848 5849 5851 5851 5851 5851 5851 5853 5853 5853 5854 5855 5855 5854 5855 5856 5855 5856 5856 5856 5856 5856 5856
5831 5831 5831 5831 5832 5832 5833 5833 5834 5834 5835 5836 5836 5837 5837 5838 5839 5840 5840 5841 5842 5843 5844 5846 5846 5846 5846 5846 5846 5847 5848 5849 5849 5849 5849 5849 5849 5849 5850 5851 5851 5851 5850
5826 5827 5827 5826 5826 5827 5827 5827 5828 5828 5829 5829 5829 5831 5832 5832 5832 5833 5834 5835 5835 5836 5837 5838 5838 5839 5840 5840 5840 5841 5841 5843 5843 5844 5844 5843 5843 5843 5843 5843 5843 5844 5844
5820 5820 5821 5821 5821 5822 5822 5822 5822 5822 5822 5822 5823 5823 5824 5825 5825 5826 5827 5827 5827 5828 5829 5830 5831 5831 5832 5833 5833 5833 5835 5835 5836 5837 5837 5838 5837 5837 5837 5837 5837 5838 5837
5813 5813 5814 5814 5815 5815 5815 5815 5815 5815 5815 5815 5815 5815 5816 5817 5818 5818 5818 5819 5819 5820 5820 5821 5823 5823 5824 5825 5826 5826 5827 5828 5828 5829 5829 5830 5831 5831 5831 5831 5832 5832 5832
5808 5808 5807 5807 5807 5807 5807 5807 5807 5807 5807 5807 5807 5808 5808 5808 5808 5809 5810 5810 5811 5811 5812 5813 5813 5814 5815 5816 5817 5818 5818 5818 5818 5819 5821 5822 5822 5823 5824 5824 5825 5826 5826
5799 5799 5799 5799 5798 5798 5798 5798 5798 5798 5798 5798 5798 5799 5799 5800 5800 5800 5801 5801 5801 5802 5802 5803 5804 5805 5806 5805 5806 5807 5808 5808 5809 5809 5810 5812 5813 5813 5813 5815 5816 5817 5818
5789 5789 5789 5789 5788 5788 5788 5788 5788 5788 5788 5788 5788 5789 5789 5789 5790 5790 5791 5791 5791 5791 5792 5793 5794 5794 5794 5794 5795 5796 5796 5797 5798 5798 5799 5800 5801 5802 5804 5804 5806 5807 5808
5779 5778 5778 5777 5777 5777 5777 5777 5777 5777 5777 5777 5776 5776 5777 5777 5778 5778 5779 5779 5779 5780 5780 5781 5782 5783 5783 5783 5782 5783 5784 5785 5786 5787 5788 5789 5790 5791 5792 5794 5794 5796 5797
5768 5767 5767 5766 5766 5766 5766 5766 5765 5765 5765 5764 5764 5765 5765 5765 5765 5766 5766 5766 5766 5766 5767 5767 5767 5769 5770 5771 5771 5770 5771 5772 5773 5774 5775 5777 5778 5779 5780 5782 5783 5784 5785
5756 5755 5754 5753 5753 5753 5753 5753 5752 5752 5751 5751 5751 5752 5751 5751 5751 5752 5752 5753 5752 5752 5752 5753 5753 5754 5756 5757 5758 5758 5759 5759 5760 5760 5761 5763 5764 5765 5767 5768 5770 5771 5773
5744 5742 5741 5740 5740 5739 5738 5738 5738 5737 5737 5737 5737 5737 5737 5737 5737 5737 5737 5737 5738 5738 5738 5738 5738 5740 5741 5742 5742 5744 5746 5747 5748 5745 5745 5747 5750 5753 5754 5755 5756 5758 5760
5731 5731 5729 5727 5726 5724 5723 5722 5722 5722 5721 5721 5721 5721 5721 5721 5721 5721 5721 5721 5722 5722 5722 5722 5723 5723 5724 5725 5726 5727 5728 5731 5734 5738 5732 5733 5734 5736 5739 5742 5743 5744 5746
5718 5716 5714 5711 5709 5708 5706 5705 5704 5704 5704 5704 5704 5704 5704 5704 5703 5703 5703 5703 5704 5704 5704 5704 5705 5705 5706 5707 5708 5709 5710 5711 5714 5717 5721 5720 5720 5720 5720 5722 5726 5729 5731
5701 5698 5695 5693 5692 5691 5689 5688 5687 5686 5686 5686 5686 5685 5685 5685 5685 5685 5684 5684 5684 5684 5684 5684 5684 5685 5686 5687 5688 5690 5691 5692 5693 5696 5699 5701 5705 5703 5706 5705 5706 5708 5712